Wind_Speed
92 92 91 91 90 90 89 89 88 87 87 87 86 87 87 87 86 86 86 85 86 86 86 86 87 87 88 88 89 90 91 91 92 92 92 92 92 92 93 93 93 94 95 95 96 97 98 99 99 100 101 102 103 104 104 105 105 106 106 106 105 105 104 103 99 95 91 88 84 82 81 82 83 84 83 81 82 84 86 86 86 86 86 87 87
94 94 94 94 93 93 92 92 91 91 90 90 90 90 90 90 89 89 88 89 89 88 88 89 89 89 89 90 90 91 92 93 93 93 94 94 94 95 96 96 96 97 98 98 99 100 100 101 101 102 104 104 104 105 105 106 107 107 108 108 108 107 105 103 100 95 90 86 83 80 79 80 81 81 80 80 82 84 85 85 86 87 86 87 88
98 98 98 97 97 96 95 95 95 94 94 93 93 93 92 92 92 92 91 91 92 91 91 92 92 92 92 92 92 93 94 94 95 96 96 96 97 98 99 99 100 100 101 101 101 102 102 103 103 105 106 105 105 106 107 108 109 109 109 109 108 107 105 103 100 95 90 86 82 80 80 80 79 79 79 80 82 84 84 85 86 86 86 87 90
103 102 102 101 101 100 100 99 99 98 98 97 97 96 96 95 95 94 94 94 94 94 94 94 95 95 95 95 95 95 96 97 97 98 98 99 100 100 101 102 102 103 103 104 104 105 105 105 106 107 108 107 108 109 110 110 111 110 110 109 108 107 105 103 100 96 92 87 84 82 81 79 78 78 79 80 81 83 84 85 85 85 87 89 91
107 106 106 105 105 105 104 103 103 103 102 101 101 101 100 99 99 98 98 98 98 98 98 98 98 98 98 98 98 98 99 99 100 100 101 102 103 103 104 104 104 105 105 106 107 107 107 107 108 109 110 110 111 111 112 112 112 111 111 110 109 107 105 102 99 96 93 89 86 83 80 78 77 77 78 80 81 82 83 83 84 85 87 90 92
110 110 109 109 109 108 108 107 107 106 106 106 105 105 104 104 103 103 102 102 102 102 102 102 101 101 101 101 102 102 102 103 103 104 105 106 106 106 106 107 107 107 108 108 109 109 110 110 111 112 112 113 113 114 114 114 113 113 111 110 109 107 103 100 98 96 92 88 84 81 79 77 78 78 80 82 82 82 82 82 83 86 88 90 92
114 114 113 113 113 112 112 111 110 110 110 110 109 109 108 108 107 107 106 106 105 106 106 106 105 105 104 104 105 105 105 106 106 107 108 109 109 109 109 109 109 110 110 111 111 112 112 113 114 114 115 116 116 116 116 115 115 113 112 111 109 106 102 99 97 94 90 86 83 83 82 81 82 83 83 84 84 83 82 82 83 86 89 91 93
118 118 117 117 117 116 116 115 114 114 113 113 113 113 113 112 111 111 110 110 109 109 109 109 108 108 108 108 108 108 108 108 109 110 111 112 112 112 112 112 112 113 113 114 114 115 115 116 117 117 118 118 118 118 117 116 115 113 111 109 107 104 101 99 96 93 90 87 86 86 86 85 85 85 84 85 84 83 83 83 85 88 90 93 96
123 122 122 121 121 120 120 119 118 118 117 117 117 117 116 116 116 115 115 114 114 113 113 112 112 112 112 111 111 111 111 111 113 114 115 115 115 115 116 116 116 116 116 117 117 118 118 119 119 120 120 120 120 119 118 117 115 113 111 109 107 104 101 98 94 92 89 87 87 86 85 84 84 85 86 86 85 84 85 86 88 91 94 96 99
127 127 126 126 125 124 123 123 122 122 121 121 120 120 120 120 120 119 119 118 118 117 116 116 116 116 116 115 115 115 115 115 117 118 118 119 119 119 119 119 120 120 120 120 121 121 121 121 121 122 122 122 121 120 118 116 115 114 112 110 107 105 102 99 96 94 92 91 90 90 88 87 87 87 86 86 86 86 88 89 91 94 96 98 100
131 131 130 129 129 128 127 127 126 126 126 125 124 124 123 123 123 123 123 122 122 121 120 120 120 120 119 119 119 119 119 120 121 121 122 123 123 123 123 123 123 123 123 123 123 124 123 123 123 123 123 122 120 119 118 118 117 115 113 110 108 106 103 100 98 97 95 93 92 92 91 90 89 89 89 88 88 88 90 92 94 97 99 100 102
135 134 134 133 132 132 131 130 130 130 129 129 128 128 127 127 127 127 126 126 125 125 124 124 124 124 123 123 123 123 123 124 125 126 126 127 127 127 127 127 126 126 126 126 126 126 125 125 124 123 122 121 120 119 120 120 119 116 114 112 110 108 106 104 102 101 99 96 93 91 91 91 91 91 92 91 90 91 93 96 99 101 103 104 105
139 138 137 137 136 135 134 133 133 133 133 132 132 131 131 130 130 130 130 129 129 129 128 127 127 127 127 126 126 126 126 127 128 129 129 130 130 130 130 129 129 128 128 128 128 127 126 124 123 122 122 121 121 121 122 121 119 117 115 114 112 110 109 107 106 104 102 99 96 94 94 95 94 94 95 95 96 97 99 100 102 103 104 105 107
143 142 142 141 140 139 138 136 135 135 135 135 134 134 134 133 133 133 133 133 132 132 132 131 130 130 130 129 129 128 129 130 131 132 131 132 132 133 132 132 131 130 129 128 128 126 125 124 123 122 122 123 123 123 122 121 120 119 117 115 113 112 110 109 107 106 104 102 99 98 98 98 97 97 98 100 102 103 103 103 103 104 104 105 107
146 145 144 144 144 143 142 141 139 138 138 137 137 137 137 136 136 136 136 135 135 135 134 134 134 133 132 132 131 131 131 132 133 133 132 132 132 133 133 132 131 129 128 127 127 127 126 125 124 124 124 124 124 124 123 122 121 120 118 116 114 112 111 109 107 106 104 102 101 100 100 99 98 99 101 103 105 105 105 105 105 105 104 104 105
150 150 149 148 147 146 145 144 142 141 140 140 139 139 138 138 138 138 137 136 135 135 135 134 134 134 134 133 133 132 132 132 133 133 133 133 133 132 131 130 129 129 128 128 128 128 127 127 126 125 125 124 124 125 125 124 122 121 119 117 115 114 111 110 108 107 105 104 102 101 100 100 99 100 103 105 107 107 106 105 105 104 102 101 101
152 152 151 151 151 150 149 148 146 145 143 142 141 140 139 139 138 138 138 138 137 137 135 134 134 134 134 135 135 134 133 133 133 134 134 134 133 132 132 132 131 131 130 130 129 129 128 128 127 127 126 126 127 127 127 125 124 122 120 118 116 113 111 110 109 107 106 105 103 102 101 100 100 102 104 106 107 106 104 103 103 101 99 98 97
152 152 151 151 151 151 151 151 151 150 149 148 147 145 144 143 142 141 141 141 141 141 140 139 138 137 138 138 138 137 137 136 137 137 136 136 136 135 135 135 134 134 133 132 132 131 130 129 129 129 130 130 131 130 129 127 125 123 120 118 116 113 111 110 109 107 105 104 102 101 100 100 100 102 103 104 104 102 101 100 99 98 96 95 94
154 153 152 152 151 151 151 151 151 151 150 151 151 151 150 149 147 146 146 145 146 146 146 145 143 142 142 142 141 141 141 141 141 140 140 139 139 139 138 138 137 137 136 136 135 134 133 132 132 133 133 133 133 132 130 129 126 123 121 118 115 112 111 110 108 106 104 102 101 100 99 98 99 100 100 100 100 99 98 97 97 95 93 92 91
156 155 155 154 153 153 153 152 152 151 150 150 150 151 152 152 152 151 150 150 150 150 149 149 147 146 146 145 145 144 144 144 143 142 142 141 141 141 141 140 140 139 139 138 137 137 136 135 135 135 135 135 134 132 131 129 126 124 121 118 115 113 112 110 107 104 103 101 100 99 98 97 97 97 97 97 96 95 95 95 94 93 91 89 87
157 157 157 156 156 155 155 155 154 154 153 152 151 151 152 152 152 152 152 152 153 153 153 152 151 149 149 148 148 148 148 147 146 145 144 143 143 142 142 141 141 141 141 140 139 138 137 137 137 137 136 135 134 132 130 128 126 124 121 118 116 114 112 108 105 103 101 99 98 97 96 96 96 96 96 95 94 93 92 92 92 91 88 85 83
157 157 157 157 157 157 157 157 157 156 156 155 154 153 153 152 152 152 151 151 152 153 154 154 153 152 151 151 151 152 152 151 150 149 148 147 146 145 144 143 143 142 141 140 139 138 138 137 136 136 136 135 133 131 129 127 125 123 120 118 116 114 110 107 105 103 100 98 97 95 95 94 94 94 94 93 91 90 89 89 88 87 84 81 80
156 157 157 157 157 158 158 158 158 158 157 156 155 154 154 153 153 152 152 151 151 152 153 154 154 153 152 152 152 153 153 153 152 152 151 150 149 148 147 146 145 143 142 140 139 138 137 136 135 135 134 133 132 130 128 126 124 122 119 117 115 112 109 107 105 102 100 97 96 94 94 93 93 92 92 91 89 86 84 83 82 80 78 77 78
151 152 153 154 155 156 156 157 157 157 157 157 156 155 155 154 154 154 153 153 152 152 153 154 154 154 153 152 152 152 152 152 152 152 151 150 150 148 148 146 145 144 142 141 139 138 136 135 134 133 132 131 130 129 127 125 123 120 118 116 113 111 108 106 104 102 100 98 96 94 93 91 90 89 89 87 83 80 77 75 74 74 75 76 78
146 147 148 149 150 152 152 153 153 154 154 154 154 154 154 154 154 154 154 154 153 153 153 153 154 154 153 152 151 151 151 151 151 151 151 150 149 148 147 146 145 144 142 140 139 137 135 134 133 132 131 129 128 127 126 124 122 119 117 115 112 110 108 106 104 103 101 98 96 94 91 89 87 85 83 80 77 73 71 70 70 71 73 75 76
142 143 144 145 146 147 148 149 149 149 150 150 150 150 151 151 151 151 152 153 153 152 152 152 152 152 151 151 150 149 149 149 149 149 148 148 147 147 146 145 144 143 142 140 138 137 135 133 132 130 129 128 126 125 124 123 121 119 117 114 112 110 107 105 104 102 100 98 95 92 89 86 83 80 78 75 73 70 69 69 70 71 72 73 74
137 139 140 141 142 143 144 145 145 146 146 147 147 147 147 147 147 147 148 149 149 149 149 149 149 149 149 148 148 147 147 147 146 146 146 145 145 144 144 143 142 141 140 139 138 136 134 133 131 130 128 127 126 125 124 123 121 119 116 114 113 110 108 105 103 101 98 94 90 86 83 80 79 77 75 73 71 69 70 71 72 72 72 73 73
130 132 134 136 137 138 140 140 141 142 142 143 143 144 144 144 144 144 144 145 145 145 146 146 146 146 146 146 145 145 145 145 145 144 144 143 143 142 142 142 141 140 139 137 136 134 133 132 131 130 129 127 126 124 122 121 120 118 116 114 112 110 107 105 102 99 96 91 86 82 79 78 78 77 75 73 71 71 72 73 73 72 72 73 72
121 123 125 128 130 131 133 134 135 136 137 138 139 140 140 140 140 140 141 141 141 141 141 142 142 142 142 142 142 141 142 142 142 142 142 141 141 141 140 140 140 139 138 136 135 133 131 130 129 128 128 127 125 122 120 119 117 116 114 112 111 108 106 104 101 98 94 90 86 82 80 79 77 74 73 73 73 74 74 75 74 73 72 72 72
113 115 117 119 121 124 125 127 128 129 131 132 133 134 135 136 136 137 137 138 138 138 137 137 138 138 138 138 138 138 138 138 139 140 139 139 139 139 138 138 138 137 136 135 133 131 130 128 126 125 124 123 122 120 118 116 114 112 111 110 108 105 103 101 99 96 93 90 86 83 79 77 74 73 73 74 75 76 76 76 75 74 73 72 73
105 107 108 110 113 115 117 119 121 122 123 125 125 126 128 129 130 131 132 133 133 134 134 134 134 134 134 134 134 134 134 135 135 136 136 136 136 136 135 135 134 133 132 131 129 128 126 125 123 121 119 118 117 116 114 112 110 108 106 105 103 101 99 97 95 95 93 91 88 84 80 76 74 73 74 75 77 78 78 78 78 76 75 75 75
100 101 101 102 104 106 108 110 111 113 115 116 117 118 119 120 121 123 125 126 126 127 127 128 128 128 128 128 128 128 129 129 130 130 130 130 130 130 130 130 129 128 127 126 124 123 121 120 118 116 114 112 111 110 109 107 105 103 101 99 97 95 94 92 91 91 91 89 87 84 80 77 75 74 75 76 77 78 79 80 79 78 77 77 77
94 95 96 97 98 99 100 101 103 105 106 108 109 110 111 111 112 113 115 117 118 119 119 120 120 121 121 122 122 121 121 122 122 122 123 123 123 123 123 122 122 121 120 119 117 116 115 114 112 111 109 107 105 104 103 101 99 97 95 93 91 90 89 88 87 87 87 87 86 84 81 78 77 76 75 75 75 77 79 79 79 78 78 78 78
90 90 90 91 92 93 94 95 97 98 100 101 103 104 105 106 107 107 107 108 110 112 113 114 114 114 114 114 115 115 115 115 115 115 115 115 115 115 115 115 114 114 113 112 111 109 109 108 106 105 103 101 100 98 96 95 93 91 89 88 86 85 84 83 83 83 83 84 85 84 82 80 79 78 76 75 75 77 78 79 79 79 79 80 80
88 87 87 88 88 88 89 90 92 93 95 96 98 99 100 101 102 103 104 104 104 105 106 108 110 110 110 110 110 109 109 110 109 109 109 108 108 108 108 107 107 107 107 107 105 104 103 102 101 100 98 97 95 93 92 90 88 86 85 84 83 81 80 80 80 80 81 82 83 84 83 82 81 79 78 77 78 78 78 79 80 79 79 80 82
89 89 88 88 88 88 88 88 89 90 91 93 94 96 97 98 98 99 100 100 100 100 101 102 104 106 107 107 107 107 106 106 106 106 105 105 104 104 103 102 101 102 102 102 101 101 99 98 98 97 96 94 92 91 90 88 86 84 82 81 80 79 79 78 78 78 78 80 81 83 83 84 83 82 81 80 80 80 80 80 81 81 80 81 83
93 93 92 92 92 91 90 90 90 90 91 91 93 94 95 96 97 97 97 97 98 98 98 98 99 101 102 103 104 104 104 104 104 104 103 103 103 102 101 100 99 99 99 99 99 99 98 97 97 97 96 94 93 91 90 89 87 85 83 81 80 79 78 77 77 77 77 78 79 81 83 85 86 86 85 84 83 82 82 83 84 83 83 83 84
97 96 96 96 96 95 94 94 93 93 93 92 93 94 94 95 96 97 97 98 98 98 98 98 99 99 100 101 102 103 103 103 103 104 104 103 103 102 101 99 99 98 98 98 99 99 98 98 98 98 98 97 95 94 92 90 89 87 85 84 82 80 79 78 77 77 76 77 78 79 82 84 87 88 89 88 87 86 86 86 86 85 84 83 84
98 98 98 98 98 98 97 96 96 96 95 95 95 95 95 96 96 97 98 99 99 100 100 100 100 101 102 103 103 104 104 103 104 104 105 106 106 105 104 103 101 101 100 101 101 101 101 101 101 101 101 100 99 97 95 93 91 89 88 87 86 84 82 80 79 78 77 77 77 78 80 82 85 87 89 90 90 89 89 89 88 88 87 86 85
99 99 99 99 99 99 99 99 99 98 98 98 97 97 96 97 97 97 98 98 99 100 101 101 102 103 104 105 106 106 106 106 106 106 107 108 109 109 109 108 107 106 105 105 104 105 104 104 104 104 104 103 103 101 99 97 94 92 90 89 88 88 86 84 82 81 80 79 78 78 78 80 82 85 88 90 90 90 90 90 90 90 89 88 87
98 98 99 99 99 100 100 100 100 100 100 100 99 99 98 98 98 98 98 98 99 99 100 101 101 103 104 105 106 107 107 107 107 108 109 109 110 111 111 112 111 111 110 109 108 108 107 107 107 107 106 106 106 105 103 101 98 96 93 91 90 89 89 88 86 84 83 82 80 79 78 79 80 83 86 89 90 90 90 91 91 90 89 88 88
97 97 97 98 98 99 99 99 100 100 100 100 100 99 99 99 99 98 98 98 98 98 98 99 99 100 102 103 104 105 105 105 105 106 107 108 109 109 110 111 111 111 111 110 110 109 108 108 107 107 106 106 106 106 105 104 101 99 97 94 92 90 90 90 90 89 87 85 83 82 80 80 80 82 84 86 88 90 91 91 91 90 89 88 89
94 94 94 94 95 95 96 96 97 97 97 98 98 98 98 98 98 97 97 97 97 97 97 97 97 98 99 100 101 102 103 103 104 104 105 105 106 107 107 108 108 109 109 109 109 108 108 107 106 106 105 105 104 104 104 104 103 101 99 97 95 92 91 90 91 91 90 89 87 85 83 82 81 82 83 85 87 90 92 92 91 90 90 90 91
91 90 90 90 90 91 91 92 92 92 93 93 93 93 93 93 93 93 93 93 93 94 94 94 95 96 96 97 99 100 101 101 102 103 103 104 105 105 106 106 107 107 107 107 107 107 107 107 106 105 105 104 103 103 103 103 102 102 100 99 97 95 93 91 91 92 92 91 90 88 86 85 84 84 84 85 87 89 91 91 91 91 92 93 94
86 86 85 85 86 86 86 86 86 86 86 86 87 87 88 88 88 89 90 90 90 91 91 92 93 93 94 95 96 97 99 100 100 101 102 103 103 104 105 105 106 106 106 107 107 107 107 107 106 105 105 104 103 103 102 102 102 102 101 100 98 96 94 93 92 92 92 93 92 90 89 88 87 86 86 86 88 89 89 89 90 91 93 95 96
82 82 82 82 82 83 83 83 83 83 83 83 84 85 86 88 88 88 89 89 89 90 90 90 91 91 92 92 93 94 95 96 97 98 99 99 100 101 102 102 103 103 104 104 104 104 105 105 104 104 103 102 101 101 101 101 101 101 100 99 98 97 96 94 92 91 92 93 93 92 91 90 89 89 88 88 89 89 89 90 90 91 93 95 96
81 81 82 81 81 81 81 81 81 82 82 83 84 86 87 87 88 88 88 88 89 89 89 90 90 90 91 91 92 92 93 93 94 94 95 95 96 97 97 98 99 99 100 100 100 100 100 100 99 99 99 98 97 97 98 98 98 98 97 96 95 95 94 93 91 90 91 92 93 93 92 91 91 91 90 90 90 90 90 90 91 92 93 94 96
82 82 82 81 81 81 81 82 82 83 84 85 86 86 86 86 87 87 88 88 89 89 89 89 89 90 90 91 91 92 92 92 92 92 92 92 92 93 93 93 94 95 95 96 96 96 96 96 95 95 94 94 93 94 94 94 95 95 95 95 93 92 91 91 89 88 87 89 91 94 94 93 92 92 92 91 91 91 91 91 91 92 92 93 94
82 82 82 82 82 82 83 83 84 85 85 85 86 86 86 86 86 87 88 88 89 89 89 89 89 89 89 89 90 90 90 90 91 91 91 91 91 91 91 90 90 90 90 91 91 91 92 92 92 91 91 90 90 90 91 91 92 92 93 92 91 90 89 88 87 86 84 83 86 91 94 94 93 92 92 92 92 92 92 92 92 92 92 92 93
82 81 81 81 82 82 83 83 83 83 83 83 83 83 83 83 84 85 85 86 86 86 86 86 87 87 87 87 88 88 88 88 88 88 88 88 88 88 88 88 88 88 87 87 87 88 88 88 88 87 87 87 87 87 87 87 88 89 89 89 89 88 87 87 86 85 83 80 79 84 89 93 94 93 93 93 93 93 92 92 92 92 92 92 92
81 80 80 80 81 81 80 80 80 80 79 79 79 79 79 79 79 80 80 80 79 79 80 80 81 82 82 83 83 84 84 84 85 85 84 84 84 84 84 84 84 84 85 85 85 86 86 85 85 85 85 85 85 85 84 84 84 84 85 85 85 85 85 84 85 85 83 79 76 77 83 89 92 93 93 93 93 93 93 93 92 92 92 92 92
Wind_Direction
265 265 266 267 268 268 268 269 269 269 270 270 270 271 271 271 272 272 272 272 272 272 272 272 272 273 274 275 276 277 278 280 281 282 283 284 285 285 286 287 288 289 290 291 292 293 294 295 296 297 298 299 300 301 302 302 303 303 304 305 306 307 307 308 309 310 310 309 309 308 307 306 305 304 304 304 303 304 305 307 307 308 308 309 308
264 265 266 267 267 268 268 269 269 269 269 269 270 270 270 271 271 272 272 272 273 273 273 273 273 274 274 275 276 277 278 279 280 281 282 283 284 285 285 286 287 288 288 289 290 291 293 294 295 296 297 298 299 300 300 301 302 303 303 304 305 306 307 307 308 309 308 308 308 307 305 305 305 304 304 304 303 304 305 306 306 307 307 307 306
264 265 266 267 268 268 268 268 269 269 269 269 269 270 270 270 271 271 272 272 273 273 273 274 274 274 275 275 276 276 277 278 279 280 281 282 283 284 284 285 286 287 288 289 290 291 292 293 294 295 296 297 298 298 299 299 300 301 302 303 304 305 305 306 307 308 308 308 307 305 305 306 306 305 304 304 304 304 305 305 306 307 306 305 304
265 266 267 267 268 268 268 269 269 269 269 269 269 269 269 270 270 270 271 271 272 272 273 273 274 274 275 275 276 276 277 278 279 280 281 281 282 283 283 284 285 286 288 289 290 291 292 293 293 294 295 295 296 297 298 299 299 300 301 302 303 304 304 305 306 307 307 307 307 306 307 308 307 306 305 304 303 303 304 306 306 306 305 303 302
266 266 267 267 268 268 268 269 269 269 270 270 270 270 270 270 270 270 271 271 271 272 272 273 273 273 274 275 275 276 277 277 278 279 280 280 281 282 283 284 285 286 287 288 289 290 291 292 292 293 293 294 295 296 297 298 299 300 301 301 302 303 304 305 306 307 308 308 308 308 308 307 306 305 304 303 303 304 305 306 305 304 303 302 301
266 266 267 267 267 268 268 268 269 269 270 270 270 270 270 270 271 271 271 271 271 272 272 272 273 273 274 274 275 276 276 277 278 279 279 280 281 282 283 284 285 286 287 288 288 289 290 290 291 292 293 294 295 295 296 297 298 299 300 300 301 302 303 305 306 307 308 308 307 307 307 306 306 306 304 303 303 304 305 305 303 302 301 300 300
266 266 267 267 268 268 268 268 268 269 269 270 270 271 271 271 271 271 271 272 272 272 272 273 273 274 274 275 275 276 277 277 278 279 279 280 281 282 282 283 284 285 286 287 287 288 289 290 291 292 292 293 294 295 295 296 297 298 299 300 301 302 303 305 306 307 307 307 306 306 306 306 306 306 304 303 303 304 304 303 302 300 300 299 299
266 266 266 267 267 268 268 268 268 269 269 270 270 271 271 271 272 272 272 272 272 273 273 273 274 274 275 275 276 277 277 278 278 279 279 280 281 281 282 283 284 284 285 286 287 288 289 289 290 291 292 292 293 294 295 295 296 298 298 299 301 302 304 306 306 307 306 306 305 305 305 305 305 305 304 303 303 303 303 302 301 300 300 300 300
266 266 266 267 267 267 268 268 268 268 269 269 270 271 271 272 272 272 272 273 273 273 274 274 275 275 276 276 277 277 278 278 278 279 280 280 281 281 282 283 283 284 285 286 286 287 288 289 290 290 291 292 292 293 294 295 296 297 298 299 301 303 305 306 306 305 304 304 303 303 302 303 303 302 303 303 302 302 301 301 300 300 300 300 300
266 266 266 267 267 267 268 268 268 268 269 269 270 270 271 271 272 272 273 273 273 274 274 275 275 275 276 276 277 277 278 278 279 279 280 280 281 282 282 283 284 284 285 285 286 287 287 288 289 290 291 291 292 293 293 295 296 297 298 301 303 304 306 306 305 304 303 303 303 302 301 301 300 301 302 302 301 300 300 300 299 299 299 299 299
265 265 266 266 266 267 267 268 268 269 269 269 270 270 271 271 272 272 273 273 274 274 275 275 276 276 277 277 278 278 279 279 279 280 280 281 281 282 282 283 284 284 285 285 286 287 287 288 289 290 290 291 291 292 293 295 296 298 300 302 303 305 305 304 303 303 302 302 301 300 300 299 299 300 301 301 300 300 299 299 299 299 299 299 299
265 265 265 266 266 266 267 267 268 268 269 270 270 270 271 271 272 272 273 273 274 274 275 275 276 276 277 277 278 278 279 279 280 280 280 281 282 282 283 283 284 284 285 285 286 286 287 288 289 289 290 290 291 292 293 295 297 299 301 303 304 304 304 303 303 303 302 301 300 300 298 297 297 298 298 299 299 299 298 298 298 299 299 298 298
266 266 266 266 266 266 266 267 267 268 268 269 270 270 271 271 272 272 273 273 274 274 274 275 275 276 276 277 278 278 279 279 279 280 281 281 282 282 283 283 283 284 285 285 286 286 287 288 288 289 290 290 291 292 295 297 299 300 302 303 303 303 303 303 303 302 301 300 299 299 298 296 297 297 296 297 298 298 298 298 298 298 298 297 297
267 267 267 267 268 268 267 267 267 267 268 268 269 269 270 270 271 271 272 272 273 274 274 275 275 275 276 276 277 278 278 278 279 279 280 280 281 282 282 283 283 284 284 285 285 286 287 288 288 289 290 291 292 295 297 299 299 300 301 302 302 302 302 302 302 301 300 299 298 297 297 296 296 295 295 296 297 298 298 298 298 297 296 295 296
268 268 268 268 268 268 268 268 268 268 268 268 269 269 269 270 270 270 271 271 272 272 273 274 274 275 275 276 276 277 277 277 278 278 279 279 280 281 282 282 282 283 284 284 285 286 287 288 290 291 292 293 295 296 298 298 299 299 300 300 300 300 300 300 299 298 298 297 296 296 295 295 295 294 294 295 296 297 297 297 296 296 295 296 296
271 271 271 271 271 271 270 270 270 270 270 270 270 270 270 270 270 270 271 271 271 272 272 272 273 274 275 275 276 276 276 276 277 277 278 279 279 280 280 281 282 283 284 286 287 288 289 291 292 293 293 294 294 295 296 297 297 297 298 298 298 298 299 299 298 297 296 296 296 295 295 294 293 292 292 293 295 295 295 295 295 295 295 296 296
271 272 273 273 274 274 274 274 274 273 273 273 273 272 272 272 272 272 272 272 272 273 273 274 274 275 276 277 277 277 277 277 277 278 279 280 280 281 282 283 284 285 287 288 289 290 291 292 292 293 293 292 293 293 294 295 295 295 296 296 296 297 297 297 296 295 295 295 295 295 294 293 291 291 291 292 293 293 294 294 293 294 294 295 295
269 270 271 272 273 274 275 276 276 276 277 277 276 276 276 276 276 276 275 276 276 276 276 277 277 278 278 279 279 280 280 280 281 282 283 283 284 284 284 285 286 287 287 288 289 289 290 291 291 291 291 291 291 292 292 293 293 294 294 295 295 296 296 294 294 294 294 294 293 292 292 291 291 290 290 290 291 292 292 292 292 292 293 294 294
268 268 269 270 271 272 272 273 274 275 276 277 277 278 278 278 278 278 278 278 279 279 279 279 280 280 281 281 281 282 282 283 284 285 285 285 286 286 286 286 286 287 287 287 288 289 289 289 289 288 288 289 289 290 291 292 292 293 293 294 295 295 294 293 293 293 293 292 291 291 291 291 290 290 289 290 290 290 291 291 291 292 292 293 293
266 267 267 268 269 270 270 271 272 272 273 274 275 276 277 277 278 278 278 278 279 279 279 280 280 281 281 282 282 282 282 282 283 283 284 284 284 284 285 285 285 285 285 286 286 287 287 287 286 286 287 287 288 289 290 291 292 293 293 294 294 293 292 292 293 292 291 291 291 290 290 290 289 289 289 289 289 290 290 290 290 291 291 292 292
264 265 266 267 267 268 268 269 270 270 271 271 272 273 274 275 275 276 277 277 278 278 278 279 279 280 280 281 281 281 281 281 281 281 281 281 281 281 282 282 282 282 283 284 284 284 285 285 285 286 286 287 288 289 290 291 292 292 293 293 293 292 292 292 291 291 290 290 289 288 288 288 288 288 288 288 289 289 289 289 290 290 291 291 291
263 264 264 265 266 266 267 268 268 269 269 270 270 271 272 273 273 274 275 275 276 277 277 278 279 279 279 280 280 280 281 281 281 281 281 281 281 281 281 281 281 281 282 282 283 283 283 284 285 286 286 287 288 289 290 290 291 292 292 292 291 291 291 291 290 289 289 288 287 287 287 287 287 287 288 288 288 289 289 289 289 289 289 290 290
263 263 263 264 264 265 265 266 267 268 269 269 270 270 271 271 272 273 273 273 274 275 275 276 277 278 278 279 279 279 280 280 280 281 281 281 281 281 281 281 281 282 282 282 283 283 284 284 285 286 287 287 288 289 289 289 290 290 290 290 290 290 290 289 289 288 288 287 287 286 286 286 287 287 287 287 288 288 288 288 288 288 288 289 289
263 264 264 264 264 265 265 265 266 266 267 268 269 269 270 270 271 272 272 273 273 273 274 275 276 277 277 277 278 278 279 279 279 280 280 280 281 281 281 281 281 282 282 282 283 283 284 285 285 286 286 287 287 288 288 288 289 289 289 289 288 288 288 288 287 287 286 286 286 286 286 286 286 286 286 286 287 287 287 287 288 288 288 289 289
263 264 264 265 265 266 266 266 266 266 267 267 267 268 269 269 270 271 271 272 272 273 273 274 274 275 276 276 277 277 278 278 279 279 280 280 281 281 281 281 282 282 282 283 283 283 284 284 285 285 285 286 286 287 287 287 287 287 287 287 287 287 287 287 286 286 286 286 286 286 286 285 285 284 285 285 286 286 286 287 288 288 289 289 289
263 263 263 264 264 265 266 266 267 267 267 267 267 268 268 268 269 269 270 271 271 272 272 273 273 274 275 275 276 276 277 277 278 278 279 280 280 281 281 282 282 282 283 283 283 284 284 284 284 285 285 285 285 285 285 286 286 286 286 286 285 285 285 285 285 285 285 285 285 285 285 284 284 284 284 284 285 285 285 286 287 288 288 288 288
263 263 263 263 264 264 265 265 266 266 267 267 268 268 268 268 268 269 269 270 270 271 272 272 273 273 274 274 275 275 276 276 277 277 278 278 279 279 280 280 281 281 282 282 283 283 284 284 284 284 284 284 284 284 284 284 285 285 285 285 284 284 284 284 283 283 283 283 283 283 282 282 282 281 281 281 282 282 283 283 284 285 286 287 289
264 264 264 264 264 264 264 265 265 266 266 267 267 268 268 268 269 269 269 269 269 270 270 271 272 272 273 273 274 274 275 275 276 276 277 277 278 278 279 279 279 280 280 281 281 282 282 282 283 283 283 283 283 283 283 283 283 284 283 283 283 283 283 282 282 282 281 280 279 278 278 278 279 279 279 278 278 279 280 281 281 283 285 287 289
265 265 265 265 265 265 265 265 265 266 266 267 267 267 268 268 268 269 269 269 269 269 270 270 270 271 271 272 272 273 273 274 274 275 275 276 276 277 277 277 278 278 279 279 279 280 280 280 280 280 281 281 281 281 281 281 282 282 282 281 281 281 281 281 280 280 279 278 276 275 275 276 276 276 277 278 277 277 278 279 279 281 284 286 287
265 265 265 265 265 266 266 266 266 266 266 266 267 267 268 268 269 269 269 269 269 269 269 270 270 270 271 271 271 272 272 272 273 273 274 274 274 275 275 276 276 277 277 277 278 278 278 278 278 278 279 279 280 280 280 280 280 280 279 279 279 279 279 278 278 277 276 275 274 273 272 273 273 273 274 275 275 275 275 276 278 280 281 281 281
266 266 265 265 265 266 266 266 267 267 267 267 267 267 268 268 269 269 269 269 270 270 270 270 270 270 270 270 271 271 271 271 272 272 273 273 273 274 274 275 275 276 276 276 277 277 277 277 278 278 278 278 278 278 278 278 278 278 278 277 277 277 277 276 275 274 273 273 272 271 270 269 269 269 269 270 271 272 273 274 276 276 275 276 277
268 268 267 267 266 266 266 266 267 267 267 267 267 267 267 268 268 269 269 270 269 270 270 270 270 270 270 270 270 270 270 271 271 271 272 272 273 273 274 275 275 275 276 276 277 277 277 277 277 277 277 277 277 277 277 277 277 276 276 276 275 275 274 274 272 272 271 271 271 269 268 265 264 265 267 268 269 270 272 273 274 274 273 273 275
269 269 269 269 268 268 267 267 267 267 267 267 267 267 267 267 267 267 268 269 270 270 269 269 270 270 270 270 270 270 270 270 271 271 271 272 272 273 274 274 275 275 276 276 276 277 277 277 277 277 276 276 276 276 276 276 275 275 275 274 274 273 273 272 271 270 269 269 268 267 265 262 261 263 264 266 268 269 271 272 274 274 273 272 273
271 270 269 269 269 269 268 268 268 267 267 267 267 267 267 266 266 266 266 267 268 269 270 270 269 269 270 270 270 270 270 270 270 270 271 271 271 272 272 273 274 274 275 275 275 276 276 276 276 276 276 275 275 275 275 275 275 275 274 274 273 272 272 271 270 269 268 267 266 264 263 261 259 259 260 262 265 267 268 270 271 272 272 271 272
273 272 271 270 269 269 269 268 268 268 268 268 267 267 267 266 266 266 266 266 266 267 268 270 270 270 270 270 270 270 270 270 270 270 270 270 270 270 271 271 272 272 273 273 273 273 274 274 274 274 274 274 275 274 274 274 274 274 274 273 273 272 271 270 269 268 267 265 264 263 261 260 259 257 257 258 261 263 264 266 268 269 271 271 272
274 273 272 271 270 270 269 268 268 268 268 268 268 268 268 268 267 267 267 267 267 267 267 268 269 270 271 271 271 271 271 271 271 271 270 270 270 270 270 270 270 270 271 271 272 272 272 272 273 273 273 273 273 274 274 274 273 273 273 273 272 272 271 270 269 268 266 265 264 262 261 259 258 256 256 256 257 259 261 263 264 266 268 270 270
275 275 274 273 272 271 270 269 269 268 267 267 267 268 268 268 269 269 269 269 269 268 268 268 268 269 269 270 271 271 271 272 272 271 271 271 270 270 270 270 269 270 270 270 270 271 271 271 271 271 272 272 272 272 272 273 273 273 273 272 272 271 271 270 269 268 266 264 263 262 260 259 257 257 256 255 255 256 258 259 261 263 265 268 269
276 275 275 275 274 273 273 272 271 270 269 268 267 267 267 267 268 268 268 269 269 269 269 269 269 269 269 269 269 270 271 271 272 272 272 272 272 272 271 271 270 270 270 270 270 270 270 270 270 271 271 271 271 271 271 271 271 272 272 271 271 270 270 269 269 267 266 265 263 262 260 259 258 257 257 257 256 256 257 259 260 261 263 266 269
275 275 275 275 275 275 274 273 273 272 271 270 269 268 267 267 267 267 267 267 268 268 268 268 268 269 269 269 269 269 270 270 271 272 272 272 273 273 273 272 272 271 271 271 271 271 271 271 271 271 271 271 271 270 270 269 269 269 269 270 270 269 269 268 268 267 266 265 263 262 261 260 259 258 258 257 257 257 258 260 261 262 263 265 268
274 274 274 274 274 274 274 274 273 273 272 271 271 270 269 268 268 267 267 267 267 267 267 268 268 268 268 269 269 269 270 270 270 271 271 271 272 273 273 273 273 272 272 271 271 271 271 271 271 271 271 271 271 271 270 269 268 268 267 267 267 268 268 267 267 266 266 265 264 263 261 260 259 258 257 257 257 257 258 260 261 261 262 264 266
273 273 273 273 273 273 272 272 272 272 272 272 271 271 270 270 269 268 268 267 267 267 267 268 268 268 269 269 269 269 270 270 270 270 271 271 271 271 272 273 273 273 273 272 272 272 272 272 272 272 272 272 272 271 270 270 268 267 266 265 265 265 266 266 265 265 264 264 264 263 262 260 259 258 257 257 256 256 257 258 259 260 261 262 263
272 272 272 272 272 271 271 271 271 271 271 271 271 271 271 270 270 269 269 269 269 268 268 268 268 269 269 269 269 269 269 269 269 269 269 269 270 270 270 271 271 272 272 272 272 271 271 271 271 271 271 271 271 271 271 270 269 267 266 265 263 263 263 263 263 263 263 263 262 262 262 261 259 258 257 257 257 256 256 257 258 259 260 260 261
273 272 272 271 271 271 271 271 271 271 271 271 271 271 271 271 271 271 271 271 270 270 269 269 268 268 268 268 268 267 267 267 267 267 267 267 267 267 267 268 268 269 269 270 270 270 270 270 270 269 269 269 270 270 270 270 269 268 266 265 263 261 260 260 260 261 261 261 260 260 260 260 259 258 257 256 256 255 255 256 257 257 258 259 260
274 273 273 272 272 271 271 271 271 271 271 272 272 272 272 272 272 272 271 271 270 270 269 268 268 267 266 266 266 265 265 265 265 265 264 264 264 264 264 265 265 265 265 266 266 267 267 267 267 267 267 267 268 268 268 268 268 268 267 266 264 262 260 258 257 258 258 258 258 258 258 258 258 257 257 256 256 255 256 256 256 256 256 257 259
274 274 274 273 273 273 272 272 273 273 273 273 274 274 273 273 272 271 271 270 269 269 268 267 267 267 266 266 266 266 265 265 265 265 265 265 265 264 264 264 264 264 264 264 264 265 265 265 266 266 266 266 266 266 266 266 266 267 267 266 266 264 261 258 256 255 255 256 256 256 256 256 257 256 256 256 256 256 256 256 256 255 255 257 258
274 274 273 273 273 273 273 274 274 274 274 274 274 273 273 272 271 271 271 270 270 269 269 268 268 267 267 266 266 266 266 266 266 266 266 265 266 266 266 266 266 266 266 266 266 266 266 266 267 267 267 267 267 266 266 266 266 266 266 266 266 265 264 261 258 255 253 253 253 253 253 253 254 255 255 255 255 256 256 256 256 256 256 256 258
273 273 273 274 274 274 274 274 274 274 273 273 272 271 271 271 271 271 271 270 270 270 269 269 269 269 268 268 267 267 266 266 266 266 266 266 265 266 266 266 266 267 267 267 267 267 267 267 267 268 267 267 267 267 267 267 267 267 267 267 266 266 266 264 262 258 254 252 252 252 251 251 251 252 253 254 255 255 255 255 256 256 256 257 258
275 275 275 276 276 276 276 275 275 274 274 273 273 272 272 273 273 273 272 272 271 271 270 269 269 269 268 268 268 268 268 268 267 267 267 267 267 266 266 266 266 266 266 267 267 267 267 267 267 267 267 267 266 266 266 266 266 266 266 266 266 266 266 265 265 262 259 255 252 251 250 250 249 250 251 252 253 254 254 255 255 256 256 257 258
275 275 275 275 275 275 275 274 274 274 274 273 274 274 274 274 273 273 273 272 272 272 272 271 271 270 270 269 269 269 269 268 268 268 268 268 268 268 268 268 267 267 267 267 267 267 267 267 267 267 267 267 266 266 265 265 265 265 265 265 265 265 265 265 264 264 262 258 254 252 251 250 249 248 249 250 251 252 253 254 255 255 256 256 257
273 273 274 274 274 274 273 273 273 274 274 274 274 274 274 273 273 272 272 272 272 272 272 272 272 272 272 271 271 271 271 270 270 269 269 268 268 268 268 268 268 268 268 268 268 268 268 268 268 267 267 267 266 265 265 264 264 264 264 265 265 265 264 264 264 263 263 260 257 253 251 250 249 248 248 248 249 250 251 253 254 255 256 256 257
274 274 274 274 274 275 275 275 275 275 275 275 275 274 274 273 273 273 273 273 273 273 273 272 272 272 272 271 271 271 271 271 271 271 270 270 270 269 268 268 267 267 267 267 267 267 267 267 267 267 267 266 266 266 265 265 264 264 264 264 264 264 264 263 263 263 263 261 258 254 252 251 250 249 248 248 248 249 250 251 252 254 255 256 257
Height
10714 10714 10714 10715 10715 10715 10715 10716 10716 10716 10716 10715 10715 10714 10713 10713 10713 10713 10714 10714 10712 10713 10713 10712 10711 10710 10709 10708 10705 10702 10700 10697 10695 10693 10693 10691 10689 10687 10685 10682 10681 10679 10676 10674 10671 10668 10666 10663 10662 10658 10653 10651 10648 10645 10641 10637 10633 10630 10628 10628 10627 10624 10621 10619 10620 10622 10615 10608 10604 10599 10592 10587 10583 10578 10573 10568 10562 10558 10555 10551 10547 10545 10541 10536 10530
10703 10703 10703 10704 10705 10705 10705 10705 10706 10706 10705 10705 10705 10704 10703 10703 10702 10703 10704 10702 10701 10702 10702 10701 10700 10700 10700 10698 10696 10693 10690 10688 10685 10684 10684 10682 10679 10677 10674 10672 10671 10669 10667 10665 10662 10660 10658 10656 10653 10649 10645 10644 10642 10637 10633 10628 10624 10622 10618 10616 10615 10613 10610 10608 10609 10611 10608 10601 10596 10592 10586 10581 10577 10571 10566 10562 10557 10552 10548 10544 10541 10537 10534 10529 10523
10692 10692 10693 10693 10693 10694 10694 10694 10694 10694 10694 10694 10694 10693 10693 10692 10692 10692 10693 10691 10690 10691 10690 10690 10689 10688 10688 10687 10685 10683 10681 10678 10676 10675 10674 10672 10669 10667 10664 10662 10661 10659 10657 10656 10653 10651 10650 10648 10645 10640 10636 10636 10633 10628 10624 10621 10617 10615 10611 10607 10605 10602 10598 10596 10598 10599 10597 10593 10588 10583 10578 10574 10569 10564 10559 10555 10550 10545 10541 10538 10533 10530 10526 10521 10516
10681 10681 10682 10682 10682 10682 10681 10682 10682 10682 10682 10682 10682 10682 10682 10681 10681 10681 10681 10680 10679 10679 10678 10678 10677 10676 10676 10675 10674 10673 10670 10668 10666 10665 10663 10660 10658 10656 10654 10652 10651 10649 10647 10645 10643 10641 10640 10639 10635 10630 10627 10626 10623 10618 10615 10612 10609 10607 10604 10600 10597 10593 10589 10586 10585 10585 10584 10583 10578 10572 10568 10564 10560 10555 10551 10546 10542 10538 10534 10530 10525 10522 10517 10512 10507
10668 10669 10669 10669 10669 10669 10669 10670 10669 10669 10669 10669 10670 10669 10669 10670 10669 10670 10670 10669 10668 10667 10666 10666 10665 10665 10665 10664 10663 10662 10659 10657 10656 10654 10651 10648 10646 10645 10643 10642 10640 10639 10638 10635 10633 10630 10629 10628 10624 10619 10617 10615 10612 10608 10605 10602 10600 10598 10595 10592 10588 10584 10580 10577 10574 10572 10571 10569 10565 10561 10558 10554 10550 10547 10543 10537 10534 10530 10525 10521 10517 10513 10509 10504 10499
10654 10655 10655 10655 10656 10655 10656 10658 10657 10657 10656 10656 10656 10656 10656 10657 10657 10657 10657 10657 10657 10655 10654 10654 10653 10654 10653 10652 10651 10650 10648 10647 10645 10641 10638 10636 10635 10633 10632 10631 10630 10629 10627 10625 10622 10620 10618 10616 10613 10609 10606 10604 10601 10597 10594 10592 10590 10588 10585 10582 10578 10575 10571 10568 10564 10561 10559 10557 10553 10550 10548 10544 10541 10538 10533 10528 10524 10521 10517 10513 10510 10505 10501 10496 10491
10639 10640 10641 10641 10641 10641 10643 10644 10644 10644 10644 10643 10643 10643 10643 10644 10645 10644 10644 10645 10644 10642 10641 10641 10641 10642 10642 10640 10639 10638 10637 10635 10632 10629 10625 10623 10622 10622 10621 10620 10619 10618 10616 10613 10611 10609 10607 10604 10601 10598 10595 10592 10589 10586 10584 10581 10579 10578 10575 10570 10567 10564 10562 10558 10555 10552 10549 10547 10544 10541 10539 10536 10532 10529 10524 10518 10515 10511 10508 10506 10502 10497 10492 10488 10482
10625 10626 10627 10627 10627 10627 10628 10629 10630 10631 10631 10630 10629 10629 10630 10630 10631 10631 10630 10631 10630 10629 10628 10629 10628 10629 10628 10627 10626 10625 10625 10623 10619 10615 10612 10610 10609 10609 10608 10608 10607 10606 10604 10602 10600 10597 10595 10592 10589 10586 10583 10580 10578 10575 10573 10570 10568 10568 10565 10560 10556 10553 10551 10548 10545 10541 10538 10537 10536 10533 10530 10528 10524 10519 10514 10510 10506 10503 10499 10497 10493 10487 10483 10478 10472
10609 10610 10611 10612 10612 10613 10613 10614 10616 10616 10617 10617 10616 10616 10616 10616 10617 10617 10616 10616 10616 10616 10616 10616 10616 10615 10614 10614 10613 10613 10612 10609 10605 10601 10599 10598 10596 10595 10595 10594 10593 10593 10592 10590 10588 10586 10583 10580 10577 10574 10571 10568 10565 10563 10561 10559 10557 10556 10553 10549 10546 10543 10541 10539 10535 10532 10529 10527 10526 10522 10520 10519 10514 10509 10505 10501 10497 10494 10491 10488 10484 10478 10473 10469 10463
10591 10593 10594 10595 10596 10597 10598 10599 10601 10601 10601 10602 10603 10603 10603 10603 10602 10602 10602 10602 10602 10603 10603 10603 10602 10601 10600 10600 10600 10599 10599 10595 10591 10587 10586 10584 10582 10581 10581 10580 10580 10579 10579 10577 10575 10573 10570 10568 10566 10563 10559 10556 10553 10550 10548 10546 10545 10543 10540 10537 10534 10532 10530 10528 10525 10522 10520 10518 10516 10512 10511 10510 10505 10499 10496 10492 10488 10485 10482 10478 10473 10468 10463 10459 10453
10573 10575 10577 10579 10580 10581 10583 10584 10585 10585 10585 10586 10588 10589 10590 10589 10588 10587 10587 10587 10588 10589 10590 10589 10587 10586 10586 10586 10586 10585 10584 10581 10576 10573 10571 10569 10567 10567 10567 10566 10566 10565 10565 10563 10561 10558 10556 10555 10553 10550 10547 10543 10540 10537 10535 10533 10531 10529 10527 10525 10523 10521 10519 10517 10514 10511 10509 10508 10506 10502 10500 10498 10494 10489 10486 10482 10479 10476 10472 10467 10463 10458 10453 10449 10443
10555 10557 10559 10562 10564 10565 10567 10569 10570 10570 10570 10571 10572 10573 10574 10574 10573 10572 10573 10573 10573 10574 10575 10574 10573 10571 10571 10571 10571 10571 10569 10566 10561 10558 10555 10553 10552 10552 10552 10552 10551 10551 10550 10548 10546 10544 10542 10541 10539 10536 10533 10530 10527 10524 10523 10520 10517 10515 10513 10512 10511 10510 10507 10505 10503 10500 10498 10496 10495 10493 10489 10486 10484 10481 10475 10472 10470 10466 10462 10457 10452 10448 10444 10439 10434
10537 10539 10541 10543 10546 10549 10551 10554 10556 10555 10555 10555 10556 10557 10557 10558 10557 10557 10558 10558 10558 10559 10559 10558 10558 10557 10556 10557 10557 10557 10555 10550 10545 10542 10540 10538 10535 10535 10537 10537 10537 10536 10535 10533 10530 10529 10527 10526 10525 10523 10519 10516 10514 10511 10508 10506 10503 10502 10501 10500 10499 10497 10495 10493 10491 10488 10485 10483 10483 10482 10477 10472 10472 10470 10464 10462 10460 10455 10450 10446 10441 10437 10433 10429 10424
10520 10522 10523 10524 10526 10529 10532 10536 10539 10540 10540 10540 10541 10541 10541 10541 10541 10541 10542 10543 10543 10542 10542 10542 10543 10542 10541 10542 10543 10543 10541 10534 10528 10526 10526 10525 10521 10519 10520 10521 10522 10522 10521 10518 10515 10514 10512 10510 10510 10509 10505 10501 10499 10495 10492 10490 10488 10488 10488 10488 10486 10484 10483 10481 10478 10474 10472 10470 10470 10470 10465 10461 10460 10458 10452 10449 10447 10443 10438 10435 10430 10426 10422 10418 10413
10503 10505 10506 10507 10508 10510 10512 10516 10518 10520 10522 10523 10524 10524 10524 10524 10525 10524 10526 10528 10527 10527 10526 10525 10526 10525 10525 10526 10528 10529 10526 10519 10514 10512 10511 10510 10508 10506 10506 10506 10506 10507 10507 10504 10500 10498 10496 10495 10495 10493 10491 10487 10483 10479 10477 10476 10475 10476 10476 10476 10475 10473 10471 10469 10466 10462 10459 10458 10457 10456 10453 10450 10448 10445 10441 10437 10434 10430 10426 10423 10418 10414 10411 10408 10403
10481 10482 10484 10486 10487 10489 10492 10495 10497 10500 10502 10503 10505 10505 10505 10506 10506 10507 10509 10510 10510 10511 10511 10510 10510 10509 10508 10508 10510 10513 10512 10504 10499 10498 10496 10495 10494 10493 10493 10492 10491 10492 10492 10489 10484 10481 10478 10478 10477 10476 10475 10473 10470 10466 10463 10462 10463 10465 10466 10465 10463 10462 10461 10457 10451 10448 10446 10445 10444 10443 10441 10438 10436 10433 10429 10425 10422 10418 10415 10411 10406 10402 10400 10397 10392
10466 10465 10465 10465 10465 10466 10468 10471 10473 10476 10478 10480 10482 10483 10484 10485 10486 10487 10489 10490 10489 10490 10491 10493 10493 10492 10491 10489 10489 10492 10492 10487 10482 10480 10478 10477 10476 10476 10476 10476 10476 10477 10477 10474 10469 10465 10463 10462 10461 10461 10460 10459 10457 10454 10453 10452 10452 10453 10454 10453 10452 10452 10450 10443 10436 10434 10434 10432 10431 10430 10427 10425 10423 10420 10417 10413 10409 10406 10403 10399 10394 10391 10389 10386 10381
10454 10453 10452 10450 10450 10450 10450 10451 10452 10453 10454 10455 10457 10459 10461 10462 10464 10466 10468 10469 10468 10466 10467 10470 10471 10471 10470 10469 10467 10468 10469 10465 10461 10459 10457 10456 10456 10456 10457 10457 10460 10461 10461 10458 10455 10453 10451 10449 10447 10445 10445 10444 10442 10442 10441 10441 10441 10442 10440 10439 10439 10440 10436 10428 10423 10423 10423 10421 10420 10418 10415 10413 10410 10408 10404 10400 10397 10394 10391 10387 10383 10381 10379 10375 10371
10440 10440 10439 10438 10437 10437 10436 10436 10437 10437 10437 10437 10437 10438 10439 10440 10442 10445 10446 10447 10447 10446 10445 10447 10448 10448 10447 10448 10447 10447 10447 10445 10441 10439 10438 10436 10436 10437 10438 10439 10442 10444 10443 10442 10442 10441 10440 10438 10435 10432 10430 10429 10428 10428 10428 10427 10428 10428 10426 10425 10427 10426 10419 10413 10411 10411 10409 10408 10407 10406 10404 10402 10398 10395 10392 10388 10385 10382 10379 10375 10372 10370 10368 10365 10361
10425 10425 10424 10424 10423 10423 10422 10422 10422 10422 10423 10424 10423 10421 10421 10422 10424 10425 10426 10427 10428 10428 10427 10427 10429 10429 10427 10427 10428 10428 10429 10429 10427 10425 10424 10422 10420 10421 10422 10423 10425 10426 10426 10427 10430 10430 10428 10426 10423 10419 10416 10415 10414 10414 10413 10411 10411 10411 10411 10412 10413 10409 10403 10401 10400 10398 10395 10394 10394 10392 10391 10389 10386 10383 10379 10376 10373 10370 10367 10364 10361 10359 10358 10355 10351
10409 10409 10409 10409 10408 10408 10407 10406 10406 10407 10407 10409 10409 10407 10406 10406 10407 10407 10408 10409 10409 10410 10409 10409 10410 10411 10410 10408 10408 10407 10408 10410 10411 10411 10410 10408 10406 10406 10407 10408 10409 10410 10412 10414 10416 10417 10415 10412 10409 10405 10401 10400 10399 10399 10398 10396 10395 10395 10396 10397 10395 10391 10389 10389 10387 10384 10383 10381 10380 10379 10378 10376 10373 10370 10367 10364 10362 10359 10356 10353 10350 10348 10347 10345 10342
10393 10393 10393 10393 10392 10391 10390 10388 10389 10390 10390 10392 10393 10392 10390 10390 10390 10390 10390 10390 10390 10390 10390 10389 10391 10393 10392 10390 10388 10386 10386 10387 10389 10389 10389 10388 10388 10388 10389 10391 10391 10392 10396 10399 10399 10399 10398 10396 10394 10390 10386 10384 10383 10383 10382 10381 10380 10380 10381 10380 10377 10375 10375 10375 10372 10371 10370 10368 10367 10366 10365 10362 10360 10357 10354 10352 10351 10349 10346 10343 10339 10337 10336 10334 10332
10374 10375 10375 10376 10375 10374 10374 10373 10372 10373 10373 10374 10376 10376 10374 10373 10373 10374 10373 10373 10373 10372 10371 10370 10371 10373 10374 10372 10369 10367 10367 10367 10368 10368 10368 10367 10367 10367 10367 10369 10369 10371 10374 10378 10379 10379 10378 10378 10377 10374 10371 10369 10367 10365 10365 10365 10365 10366 10365 10363 10361 10361 10361 10360 10357 10356 10355 10354 10354 10353 10351 10349 10348 10345 10342 10340 10339 10338 10336 10333 10330 10327 10326 10324 10322
10354 10353 10354 10354 10354 10354 10355 10357 10357 10357 10357 10358 10358 10359 10358 10357 10357 10356 10356 10356 10357 10357 10355 10354 10353 10355 10355 10354 10351 10348 10347 10347 10347 10347 10347 10348 10348 10348 10347 10347 10348 10349 10352 10356 10358 10359 10360 10360 10359 10357 10356 10354 10351 10349 10348 10349 10350 10350 10349 10348 10347 10346 10346 10345 10343 10340 10339 10340 10340 10340 10339 10337 10335 10333 10330 10328 10327 10327 10325 10323 10320 10318 10316 10314 10312
10335 10335 10334 10333 10333 10333 10334 10335 10337 10338 10339 10340 10342 10342 10342 10342 10342 10340 10338 10338 10340 10341 10340 10339 10338 10338 10338 10338 10336 10332 10329 10328 10326 10325 10324 10325 10326 10325 10325 10325 10326 10327 10330 10334 10336 10339 10341 10342 10341 10340 10339 10337 10335 10333 10331 10332 10333 10333 10333 10332 10332 10331 10330 10329 10327 10324 10324 10325 10325 10326 10326 10325 10323 10321 10319 10316 10316 10316 10314 10313 10311 10309 10306 10304 10302
10317 10317 10317 10316 10314 10313 10313 10314 10315 10317 10318 10319 10321 10322 10323 10325 10326 10325 10323 10321 10321 10322 10323 10322 10322 10321 10321 10321 10320 10318 10315 10312 10310 10308 10307 10307 10306 10304 10303 10303 10303 10304 10307 10310 10312 10316 10319 10320 10321 10321 10320 10319 10318 10317 10315 10315 10316 10317 10317 10316 10316 10316 10316 10314 10312 10310 10310 10310 10310 10311 10312 10311 10310 10309 10308 10305 10305 10305 10304 10303 10301 10299 10297 10294 10292
10298 10298 10298 10298 10298 10297 10297 10297 10297 10297 10298 10298 10299 10301 10302 10305 10307 10308 10306 10305 10304 10304 10305 10305 10304 10303 10304 10304 10303 10302 10300 10297 10294 10293 10292 10292 10291 10289 10288 10287 10287 10288 10289 10290 10292 10295 10297 10298 10299 10301 10301 10301 10300 10300 10299 10298 10299 10299 10300 10300 10299 10299 10300 10299 10298 10298 10297 10296 10297 10297 10297 10297 10298 10298 10297 10295 10295 10295 10294 10293 10292 10290 10287 10284 10283
10279 10280 10279 10279 10280 10280 10280 10280 10280 10280 10280 10280 10280 10280 10282 10283 10286 10288 10288 10287 10287 10287 10287 10287 10287 10286 10286 10286 10285 10285 10284 10280 10278 10277 10276 10275 10275 10273 10272 10272 10272 10273 10275 10276 10278 10281 10282 10281 10281 10281 10282 10282 10283 10283 10283 10282 10281 10281 10282 10283 10283 10283 10284 10284 10284 10284 10283 10283 10284 10284 10284 10285 10286 10286 10285 10285 10285 10285 10284 10283 10282 10280 10278 10275 10274
10261 10262 10261 10261 10260 10261 10262 10263 10263 10264 10263 10263 10262 10262 10262 10263 10265 10267 10267 10267 10268 10269 10269 10270 10269 10268 10269 10269 10268 10269 10268 10263 10260 10260 10259 10258 10258 10257 10256 10255 10254 10256 10258 10260 10263 10265 10266 10266 10266 10265 10264 10264 10266 10267 10267 10266 10265 10265 10264 10265 10266 10267 10268 10268 10269 10270 10269 10269 10270 10272 10272 10272 10273 10274 10274 10273 10273 10274 10274 10273 10272 10271 10268 10266 10265
10243 10244 10244 10244 10243 10242 10243 10244 10245 10246 10247 10247 10246 10245 10244 10243 10244 10246 10247 10246 10246 10248 10250 10251 10250 10249 10250 10250 10249 10250 10251 10248 10244 10242 10242 10241 10241 10240 10239 10238 10238 10239 10240 10242 10245 10247 10248 10249 10250 10251 10249 10249 10249 10249 10249 10249 10250 10249 10248 10249 10250 10251 10252 10253 10253 10254 10255 10256 10257 10259 10260 10261 10262 10262 10262 10261 10261 10261 10261 10262 10262 10261 10259 10257 10255
10226 10227 10228 10228 10228 10227 10226 10226 10226 10227 10228 10229 10230 10229 10228 10226 10224 10225 10225 10226 10226 10225 10226 10228 10230 10229 10230 10230 10229 10229 10230 10230 10228 10225 10224 10223 10222 10222 10221 10221 10221 10222 10223 10224 10226 10227 10227 10229 10231 10232 10232 10232 10232 10232 10231 10232 10233 10233 10233 10233 10234 10235 10236 10237 10237 10237 10238 10240 10243 10246 10247 10248 10249 10250 10249 10249 10249 10249 10249 10249 10249 10249 10248 10246 10244
10209 10210 10211 10212 10213 10212 10211 10210 10210 10210 10210 10210 10211 10212 10213 10212 10210 10206 10203 10204 10206 10207 10205 10205 10206 10207 10208 10209 10210 10210 10209 10209 10209 10208 10207 10206 10205 10204 10203 10203 10203 10204 10205 10206 10207 10207 10208 10209 10211 10213 10213 10214 10215 10214 10214 10215 10216 10216 10218 10218 10219 10219 10220 10221 10222 10222 10223 10226 10229 10232 10234 10234 10235 10236 10236 10236 10237 10236 10236 10237 10237 10237 10236 10235 10234
10194 10195 10194 10195 10196 10196 10196 10196 10195 10194 10194 10193 10193 10193 10194 10195 10196 10194 10188 10184 10184 10186 10187 10187 10186 10185 10186 10187 10190 10192 10191 10191 10190 10190 10190 10190 10190 10188 10187 10186 10186 10186 10186 10188 10189 10189 10189 10189 10191 10192 10194 10195 10196 10197 10197 10198 10199 10200 10201 10202 10203 10204 10204 10205 10207 10208 10210 10212 10214 10217 10220 10221 10221 10222 10223 10224 10225 10225 10225 10225 10225 10225 10225 10224 10223
10178 10179 10179 10178 10179 10179 10179 10179 10179 10178 10177 10176 10176 10176 10176 10176 10177 10178 10177 10174 10169 10166 10167 10167 10168 10168 10168 10168 10170 10172 10173 10173 10173 10173 10174 10174 10174 10173 10173 10173 10172 10170 10169 10170 10172 10173 10172 10172 10173 10173 10175 10177 10178 10179 10181 10182 10183 10184 10185 10186 10187 10189 10190 10191 10192 10194 10196 10198 10200 10203 10205 10207 10208 10210 10211 10212 10213 10213 10213 10213 10214 10214 10213 10212 10211
10161 10162 10162 10162 10162 10163 10163 10163 10163 10162 10161 10160 10159 10159 10159 10159 10159 10159 10161 10162 10160 10157 10153 10150 10149 10149 10150 10151 10152 10153 10154 10154 10155 10156 10157 10157 10157 10157 10158 10159 10158 10156 10154 10154 10155 10156 10156 10156 10157 10157 10158 10160 10162 10163 10165 10167 10168 10169 10170 10171 10172 10174 10175 10176 10178 10179 10181 10183 10185 10188 10190 10193 10195 10197 10198 10199 10200 10200 10201 10201 10201 10202 10202 10200 10199
10145 10145 10145 10145 10146 10147 10148 10148 10148 10147 10146 10145 10144 10143 10143 10143 10143 10144 10145 10145 10147 10148 10146 10141 10137 10134 10134 10134 10134 10134 10135 10136 10137 10139 10139 10139 10140 10140 10142 10144 10143 10142 10141 10140 10139 10140 10141 10141 10142 10142 10143 10145 10147 10148 10149 10151 10153 10155 10156 10157 10158 10160 10161 10162 10164 10165 10167 10169 10171 10173 10176 10178 10180 10182 10184 10185 10186 10187 10188 10188 10189 10190 10190 10188 10187
10130 10129 10129 10128 10129 10130 10131 10132 10132 10132 10132 10132 10131 10129 10129 10128 10128 10128 10129 10130 10130 10131 10132 10131 10127 10124 10122 10120 10118 10117 10118 10118 10118 10120 10121 10121 10122 10123 10126 10128 10128 10128 10128 10127 10125 10125 10126 10126 10126 10126 10127 10129 10132 10133 10135 10136 10138 10140 10142 10143 10145 10146 10147 10149 10150 10152 10153 10155 10157 10160 10162 10164 10165 10167 10168 10170 10171 10172 10174 10174 10176 10177 10177 10177 10176
10113 10113 10112 10111 10111 10112 10113 10114 10115 10115 10116 10117 10117 10116 10115 10115 10114 10113 10113 10114 10114 10114 10115 10115 10114 10111 10110 10107 10105 10104 10104 10104 10103 10103 10103 10103 10104 10106 10109 10111 10112 10113 10113 10112 10111 10111 10112 10112 10111 10111 10112 10114 10116 10119 10121 10122 10124 10126 10127 10129 10131 10132 10134 10135 10137 10138 10140 10142 10143 10146 10148 10150 10151 10152 10154 10155 10157 10158 10160 10161 10163 10164 10165 10165 10165
10097 10096 10095 10094 10094 10094 10094 10096 10096 10096 10097 10098 10099 10099 10099 10099 10099 10098 10098 10098 10098 10099 10099 10099 10098 10097 10095 10093 10091 10091 10091 10092 10092 10090 10088 10087 10087 10088 10090 10093 10095 10097 10097 10096 10096 10096 10096 10097 10097 10096 10097 10098 10100 10102 10105 10108 10110 10112 10114 10115 10116 10118 10120 10122 10123 10125 10126 10128 10130 10131 10133 10136 10137 10139 10140 10142 10144 10145 10147 10148 10150 10152 10153 10153 10153
10081 10080 10079 10078 10077 10077 10077 10077 10077 10077 10078 10078 10079 10080 10081 10081 10082 10082 10082 10083 10083 10083 10083 10084 10084 10082 10079 10077 10077 10076 10077 10079 10079 10077 10076 10075 10073 10071 10071 10073 10075 10078 10079 10080 10080 10080 10081 10081 10082 10081 10082 10082 10083 10085 10088 10091 10094 10097 10099 10101 10102 10104 10106 10108 10110 10111 10113 10114 10116 10118 10120 10122 10123 10125 10126 10128 10130 10132 10134 10136 10138 10140 10141 10141 10141
10064 10064 10064 10062 10061 10061 10061 10060 10059 10059 10059 10059 10060 10060 10061 10062 10063 10063 10064 10065 10066 10066 10067 10067 10067 10066 10063 10062 10061 10060 10061 10064 10064 10062 10061 10061 10060 10058 10056 10056 10056 10058 10060 10061 10063 10063 10064 10065 10065 10065 10066 10066 10066 10068 10070 10073 10077 10080 10083 10086 10088 10089 10091 10093 10095 10096 10098 10100 10102 10104 10106 10108 10109 10110 10112 10114 10116 10118 10121 10123 10125 10127 10128 10128 10127
10048 10048 10048 10047 10045 10045 10044 10044 10043 10043 10042 10042 10042 10042 10042 10043 10043 10044 10045 10046 10047 10048 10049 10050 10050 10048 10047 10045 10044 10042 10043 10045 10046 10045 10044 10044 10043 10042 10042 10040 10039 10040 10040 10041 10042 10043 10045 10047 10048 10048 10049 10049 10049 10050 10052 10054 10057 10061 10065 10068 10071 10073 10076 10077 10079 10081 10083 10085 10087 10089 10091 10093 10095 10097 10098 10101 10103 10105 10107 10109 10111 10113 10114 10114 10113
10031 10032 10032 10031 10030 10029 10029 10028 10027 10027 10026 10026 10026 10026 10025 10026 10026 10027 10027 10028 10028 10029 10030 10031 10031 10030 10028 10027 10025 10023 10023 10024 10024 10024 10024 10024 10024 10024 10024 10023 10023 10022 10022 10022 10023 10023 10024 10026 10028 10029 10030 10031 10032 10033 10034 10035 10037 10040 10044 10048 10052 10055 10058 10061 10062 10064 10067 10070 10072 10075 10077 10079 10081 10082 10084 10087 10090 10091 10093 10094 10096 10098 10099 10098 10098
10014 10015 10015 10015 10014 10013 10013 10012 10012 10012 10012 10011 10011 10011 10010 10010 10010 10010 10009 10010 10010 10010 10010 10010 10010 10010 10009 10008 10006 10004 10004 10004 10003 10003 10004 10004 10004 10004 10004 10004 10004 10004 10004 10005 10005 10004 10005 10007 10008 10010 10011 10013 10014 10015 10016 10017 10018 10020 10023 10027 10031 10035 10039 10042 10044 10046 10049 10053 10056 10059 10061 10064 10066 10068 10070 10072 10074 10076 10078 10080 10082 10083 10084 10084 10084
9998 9998 9998 9998 9997 9997 9997 9997 9997 9997 9997 9996 9996 9995 9994 9992 9992 9991 9991 9991 9992 9991 9991 9991 9991 9990 9990 9990 9988 9986 9986 9985 9985 9985 9986 9986 9986 9986 9986 9986 9986 9987 9987 9987 9987 9987 9988 9989 9990 9992 9994 9995 9996 9997 9998 9999 10001 10002 10005 10007 10010 10014 10018 10022 10026 10028 10031 10035 10038 10042 10045 10048 10050 10052 10055 10057 10059 10061 10063 10065 10067 10069 10070 10070 10071
9983 9983 9983 9983 9982 9982 9982 9982 9982 9983 9982 9981 9980 9979 9977 9975 9974 9974 9973 9974 9974 9973 9973 9973 9972 9972 9972 9972 9971 9970 9969 9968 9968 9968 9968 9968 9969 9969 9969 9969 9969 9970 9970 9971 9971 9972 9972 9973 9974 9975 9977 9978 9980 9981 9982 9982 9983 9985 9988 9990 9992 9995 9998 10002 10007 10010 10013 10016 10020 10024 10028 10031 10034 10036 10039 10041 10043 10045 10048 10050 10052 10054 10056 10057 10058
9969 9969 9968 9968 9969 9968 9968 9968 9968 9967 9966 9965 9963 9962 9960 9959 9958 9958 9958 9957 9957 9956 9956 9956 9955 9954 9954 9953 9953 9952 9952 9951 9951 9951 9951 9951 9952 9952 9952 9952 9953 9953 9954 9954 9955 9956 9956 9957 9958 9959 9961 9962 9964 9965 9965 9966 9967 9968 9971 9973 9976 9978 9981 9984 9988 9992 9996 9999 10002 10006 10010 10014 10017 10020 10023 10025 10028 10030 10033 10035 10037 10040 10042 10043 10045
9955 9955 9954 9954 9954 9953 9953 9952 9951 9950 9949 9948 9947 9946 9945 9945 9944 9943 9942 9941 9940 9939 9939 9939 9938 9938 9937 9936 9936 9935 9935 9935 9935 9935 9935 9935 9935 9935 9936 9936 9937 9937 9938 9938 9939 9939 9940 9941 9941 9943 9944 9946 9948 9949 9950 9950 9951 9952 9954 9956 9959 9962 9964 9967 9970 9974 9979 9982 9985 9988 9992 9997 10001 10004 10007 10010 10013 10015 10018 10020 10023 10025 10027 10029 10031
9941 9941 9940 9940 9939 9938 9937 9936 9935 9934 9933 9933 9932 9931 9931 9930 9929 9927 9926 9925 9924 9923 9922 9922 9922 9921 9921 9920 9920 9920 9919 9920 9920 9919 9919 9919 9920 9920 9920 9921 9921 9922 9923 9923 9924 9924 9925 9925 9926 9927 9929 9930 9932 9933 9934 9935 9935 9937 9939 9940 9943 9946 9949 9951 9953 9957 9961 9966 9969 9972 9975 9979 9984 9988 9991 9994 9997 10000 10003 10005 10008 10010 10013 10015 10017
9927 9926 9926 9925 9924 9923 9922 9921 9921 9920 9919 9918 9917 9917 9916 9914 9913 9912 9911 9910 9909 9908 9908 9907 9906 9905 9905 9904 9904 9904 9904 9903 9903 9903 9903 9904 9904 9904 9905 9906 9906 9907 9908 9908 9909 9909 9910 9911 9911 9912 9914 9915 9916 9918 9919 9920 9921 9922 9924 9925 9928 9930 9933 9936 9938 9941 9944 9949 9953 9956 9959 9962 9967 9971 9975 9979 9982 9985 9988 9991 9993 9996 9999 10001 10003
9912 9912 9911 9910 9909 9908 9907 9906 9906 9905 9904 9903 9902 9901 9900 9899 9898 9897 9896 9896 9895 9895 9893 9892 9891 9890 9889 9889 9888 9888 9888 9888 9887 9887 9887 9888 9888 9889 9890 9890 9891 9892 9892 9893 9893 9893 9894 9895 9896 9897 9898 9899 9900 9901 9903 9904 9906 9907 9909 9911 9913 9915 9918 9921 9923 9925 9928 9933 9937 9940 9943 9946 9950 9955 9960 9963 9967 9971 9974 9977 9979 9982 9985 9987 9989